Terug naar catalogus

STARLINK-2380

ActiefCommunicatieVLEO
NORAD 47799·PAYLOAD·🇺🇸 United States

Gelanceerd Mar 11, 2021 vanaf Cape Canaveral Space Force Station

Loading…

Volgende Passages (komende 24 uur)

TLE

VersSource: CelesTrak SupGP

Epoch: Sep 15, 2026, 02:40 UTC

1 47799C 21018N   26258.11159722 -.00027717  00000+0 -89132-3 0  2588
2 47799  53.1582  70.6202 0001126  81.8804 301.8001 15.31715272    16

Volg STARLINK-2380 in realtime met AllMySat

Download on the App Store